Time,TemperatureF,DewpointF,PressureIn,WindDirection,WindDirectionDegrees,WindSpeedMPH,WindSpeedGustMPH,Humidity,HourlyPrecipIn,Conditions,Clouds,dailyrainin,SoftwareType,DateUTC
2013-03-16 00:00:00,36.9,14.2,29.53,NW,313,7.6,12.3,39,0.00,,,0.00,VWS V14.01,2013-03-16 04:00:00,
2013-03-16 00:05:00,37.0,13.8,29.53,NNW,327,4.9,12.3,38,0.00,,,0.00,VWS V14.01,2013-03-16 04:05:00,
2013-03-16 00:10:00,36.9,14.2,29.53,West,265,12.3,12.7,39,0.00,,,0.00,VWS V14.01,2013-03-16 04:10:00,
2013-03-16 00:15:00,36.9,14.2,29.53,NNW,344,7.6,12.7,39,0.00,,,0.00,VWS V14.01,2013-03-16 04:15:00,
2013-03-16 00:20:00,36.9,14.2,29.53,West,279,4.4,12.7,39,0.00,,,0.00,VWS V14.01,2013-03-16 04:20:00,
2013-03-16 00:25:00,36.7,13.5,29.53,West,275,5.8,14.5,38,0.00,,,0.00,VWS V14.01,2013-03-16 04:25:00,
2013-03-16 00:30:00,36.7,12.9,29.53,ENE,68,12.7,17.2,37,0.00,,,0.00,VWS V14.01,2013-03-16 04:30:00,
2013-03-16 00:35:00,36.9,12.4,29.53,North,9,7.6,19.2,36,0.00,,,0.00,VWS V14.01,2013-03-16 04:35:00,
2013-03-16 00:40:00,36.9,13.0,29.53,NNE,12,13.2,19.2,37,0.00,,,0.00,VWS V14.01,2013-03-16 04:40:00,
2013-03-16 00:45:00,36.9,12.4,29.53,NNE,12,11.8,19.2,36,0.00,,,0.00,VWS V14.01,2013-03-16 04:45:00,
2013-03-16 00:50:00,36.9,12.4,29.53,NW,305,11.8,19.2,36,0.00,,,0.00,VWS V14.01,2013-03-16 04:50:00,
2013-03-16 00:55:00,36.7,12.9,29.53,North,350,7.6,19.2,37,0.00,,,0.00,VWS V14.01,2013-03-16 04:55:00,
2013-03-16 01:00:00,36.5,12.7,29.53,North,349,6.7,6.7,37,0.00,,,0.00,VWS V14.01,2013-03-16 05:00:00,
2013-03-16 01:05:00,36.3,11.9,29.53,WNW,295,4.9,13.6,36,0.00,,,0.00,VWS V14.01,2013-03-16 05:05:00,
2013-03-16 01:10:00,36.3,11.3,29.53,WNW,295,4.4,14.1,35,0.00,,,0.00,VWS V14.01,2013-03-16 05:10:00,
2013-03-16 01:15:00,36.3,11.3,29.53,NW,312,10.9,18.8,35,0.00,,,0.00,VWS V14.01,2013-03-16 05:15:00,
2013-03-16 01:20:00,36.3,11.3,29.53,NNW,346,12.3,18.8,35,0.00,,,0.00,VWS V14.01,2013-03-16 05:20:00,
2013-03-16 01:25:00,36.1,11.1,29.53,NNW,333,12.3,18.8,35,0.00,,,0.00,VWS V14.01,2013-03-16 05:25:00,
2013-03-16 01:30:00,36.1,10.5,29.53,NW,309,10.5,18.8,34,0.00,,,0.00,VWS V14.01,2013-03-16 05:30:00,
2013-03-16 01:35:00,36.1,10.5,29.56,West,271,5.3,18.8,34,0.00,,,0.00,VWS V14.01,2013-03-16 05:35:00,
2013-03-16 01:40:00,36.1,10.5,29.56,West,265,7.1,18.8,34,0.00,,,0.00,VWS V14.01,2013-03-16 05:40:00,
2013-03-16 01:45:00,36.0,10.3,29.56,NNE,27,5.3,18.8,34,0.00,,,0.00,VWS V14.01,2013-03-16 05:45:00,
2013-03-16 01:50:00,35.8,9.5,29.56,WSW,256,7.1,18.8,33,0.00,,,0.00,VWS V14.01,2013-03-16 05:50:00,
2013-03-16 01:55:00,35.8,9.5,29.56,West,263,5.3,18.8,33,0.00,,,0.00,VWS V14.01,2013-03-16 05:55:00,
2013-03-16 02:00:00,35.8,9.5,29.56,NW,307,8.0,18.8,33,0.00,,,0.00,VWS V14.01,2013-03-16 06:00:00,
2013-03-16 02:05:00,35.6,9.4,29.56,North,357,8.5,13.6,33,0.00,,,0.00,VWS V14.01,2013-03-16 06:05:00,
2013-03-16 02:10:00,35.6,9.4,29.56,NNW,344,5.3,13.6,33,0.00,,,0.00,VWS V14.01,2013-03-16 06:10:00,
2013-03-16 02:15:00,35.6,8.7,29.56,East,92,4.0,13.6,32,0.00,,,0.00,VWS V14.01,2013-03-16 06:15:00,
2013-03-16 02:20:00,35.4,9.2,29.56,NW,310,6.7,13.6,33,0.00,,,0.00,VWS V14.01,2013-03-16 06:20:00,
2013-03-16 02:25:00,35.2,9.0,29.56,WSW,246,1.8,13.6,33,0.00,,,0.00,VWS V14.01,2013-03-16 06:25:00,
2013-03-16 02:30:00,35.1,8.9,29.56,North,353,4.9,13.6,33,0.00,,,0.00,VWS V14.01,2013-03-16 06:30:00,
2013-03-16 02:35:00,34.9,8.7,29.56,WNW,285,1.8,13.6,33,0.00,,,0.00,VWS V14.01,2013-03-16 06:35:00,
2013-03-16 02:40:00,34.9,8.7,29.56,NW,305,7.6,13.6,33,0.00,,,0.00,VWS V14.01,2013-03-16 06:40:00,
2013-03-16 02:45:00,34.9,8.7,29.56,North,357,7.6,14.9,33,0.00,,,0.00,VWS V14.01,2013-03-16 06:45:00,
2013-03-16 02:50:00,34.9,8.7,29.59,NNW,337,5.3,14.9,33,0.00,,,0.00,VWS V14.01,2013-03-16 06:50:00,
2013-03-16 02:55:00,34.9,8.7,29.59,North,0,7.1,14.9,33,0.00,,,0.00,VWS V14.01,2013-03-16 06:55:00,
2013-03-16 03:00:00,34.9,8.7,29.59,WNW,299,6.7,14.9,33,0.00,,,0.00,VWS V14.01,2013-03-16 07:00:00,
2013-03-16 03:05:00,34.7,8.6,29.59,NNE,12,4.9,11.4,33,0.00,,,0.00,VWS V14.01,2013-03-16 07:05:00,
2013-03-16 03:10:00,34.5,8.4,29.59,WNW,302,4.9,11.4,33,0.00,,,0.00,VWS V14.01,2013-03-16 07:10:00,
2013-03-16 03:15:00,34.5,9.1,29.59,North,0,7.6,11.4,34,0.00,,,0.00,VWS V14.01,2013-03-16 07:15:00,
2013-03-16 03:20:00,34.7,9.2,29.59,NNE,15,6.7,12.3,34,0.00,,,0.00,VWS V14.01,2013-03-16 07:20:00,
2013-03-16 03:25:00,34.7,9.2,29.59,NNE,14,10.5,12.3,34,0.00,,,0.00,VWS V14.01,2013-03-16 07:25:00,
2013-03-16 03:30:00,34.5,9.1,29.59,NNW,333,7.6,12.3,34,0.00,,,0.00,VWS V14.01,2013-03-16 07:30:00,
2013-03-16 03:35:00,34.5,9.1,29.59,North,4,4.0,12.3,34,0.00,,,0.00,VWS V14.01,2013-03-16 07:35:00,
2013-03-16 03:40:00,34.3,8.9,29.59,NNW,348,10.0,12.3,34,0.00,,,0.00,VWS V14.01,2013-03-16 07:40:00,
2013-03-16 03:45:00,34.0,8.6,29.59,North,0,8.0,12.3,34,0.00,,,0.00,VWS V14.01,2013-03-16 07:45:00,
2013-03-16 03:50:00,34.0,8.6,29.59,North,353,5.3,12.3,34,0.00,,,0.00,VWS V14.01,2013-03-16 07:50:00,
2013-03-16 03:55:00,34.0,9.2,29.59,NNW,344,9.4,12.3,35,0.00,,,0.00,VWS V14.01,2013-03-16 07:55:00,
2013-03-16 04:00:00,34.0,8.6,29.59,North,357,4.9,7.6,34,0.00,,,0.00,VWS V14.01,2013-03-16 08:00:00,
2013-03-16 04:05:00,34.0,9.2,29.59,NNW,341,10.0,11.8,35,0.00,,,0.00,VWS V14.01,2013-03-16 08:05:00,
2013-03-16 04:10:00,33.8,9.1,29.59,NNW,341,8.0,12.3,35,0.00,,,0.00,VWS V14.01,2013-03-16 08:10:00,
2013-03-16 04:15:00,33.8,9.1,29.59,North,357,5.8,12.3,35,0.00,,,0.00,VWS V14.01,2013-03-16 08:15:00,
2013-03-16 04:20:00,33.6,8.9,29.59,NNW,342,12.3,12.3,35,0.00,,,0.00,VWS V14.01,2013-03-16 08:20:00,
2013-03-16 04:25:00,33.6,8.9,29.59,NNW,348,5.8,12.3,35,0.00,,,0.00,VWS V14.01,2013-03-16 08:25:00,
2013-03-16 04:30:00,33.4,8.7,29.59,NNE,13,10.5,14.5,35,0.00,,,0.00,VWS V14.01,2013-03-16 08:30:00,
2013-03-16 04:35:00,33.4,8.7,29.62,North,357,12.7,14.5,35,0.00,,,0.00,VWS V14.01,2013-03-16 08:35:00,
2013-03-16 04:40:00,33.3,7.9,29.62,North,357,4.4,14.5,34,0.00,,,0.00,VWS V14.01,2013-03-16 08:40:00,
2013-03-16 04:45:00,33.3,7.9,29.62,North,357,10.0,14.5,34,0.00,,,0.00,VWS V14.01,2013-03-16 08:45:00,
2013-03-16 04:50:00,33.3,7.9,29.62,North,357,10.0,14.5,34,0.00,,,0.00,VWS V14.01,2013-03-16 08:50:00,
2013-03-16 04:55:00,33.1,7.8,29.62,NNW,344,9.8,14.5,34,0.00,,,0.00,VWS V14.01,2013-03-16 08:55:00,
2013-03-16 05:00:00,33.1,7.8,29.62,North,357,8.0,14.5,34,0.00,,,0.00,VWS V14.01,2013-03-16 09:00:00,
2013-03-16 05:05:00,33.1,8.4,29.62,NW,309,4.9,10.9,35,0.00,,,0.00,VWS V14.01,2013-03-16 09:05:00,
2013-03-16 05:10:00,32.9,7.6,29.62,NE,50,8.0,10.9,34,0.00,,,0.00,VWS V14.01,2013-03-16 09:10:00,
2013-03-16 05:15:00,32.7,7.5,29.62,NW,325,4.9,10.9,34,0.00,,,0.00,VWS V14.01,2013-03-16 09:15:00,
2013-03-16 05:20:00,32.7,7.5,29.62,North,350,4.0,10.9,34,0.00,,,0.00,VWS V14.01,2013-03-16 09:20:00,
2013-03-16 05:25:00,32.5,7.3,29.62,NW,313,7.6,10.9,34,0.00,,,0.00,VWS V14.01,2013-03-16 09:25:00,
2013-03-16 05:30:00,32.5,7.9,29.62,NNW,328,1.8,10.9,35,0.00,,,0.00,VWS V14.01,2013-03-16 09:30:00,
2013-03-16 05:35:00,32.4,7.8,29.65,North,357,9.8,10.9,35,0.00,,,0.00,VWS V14.01,2013-03-16 09:35:00,
2013-03-16 05:40:00,32.2,7.0,29.65,WSW,257,1.8,10.9,34,0.00,,,0.00,VWS V14.01,2013-03-16 09:40:00,
2013-03-16 05:45:00,32.2,7.6,29.65,North,9,5.3,10.9,35,0.00,,,0.00,VWS V14.01,2013-03-16 09:45:00,
2013-03-16 05:50:00,32.0,7.5,29.65,NW,313,1.8,10.9,35,0.00,,,0.00,VWS V14.01,2013-03-16 09:50:00,
2013-03-16 05:55:00,32.0,7.5,29.65,NNW,346,7.1,10.9,35,0.00,,,0.00,VWS V14.01,2013-03-16 09:55:00,
2013-03-16 06:00:00,32.0,7.5,29.65,NE,42,4.4,10.9,35,0.00,,,0.00,VWS V14.01,2013-03-16 10:00:00,
2013-03-16 06:05:00,31.8,6.7,29.65,NW,326,1.8,10.5,34,0.00,,,0.00,VWS V14.01,2013-03-16 10:05:00,
2013-03-16 06:10:00,31.8,7.3,29.65,North,5,9.4,10.5,35,0.00,,,0.00,VWS V14.01,2013-03-16 10:10:00,
2013-03-16 06:15:00,31.8,6.7,29.65,NW,313,1.8,10.5,34,0.00,,,0.00,VWS V14.01,2013-03-16 10:15:00,
2013-03-16 06:20:00,31.6,6.5,29.65,North,353,4.0,10.5,34,0.00,,,0.00,VWS V14.01,2013-03-16 10:20:00,
2013-03-16 06:25:00,31.5,6.3,29.65,NNW,336,1.8,10.5,34,0.00,,,0.00,VWS V14.01,2013-03-16 10:25:00,
2013-03-16 06:30:00,31.3,6.2,29.65,North,357,1.8,10.5,34,0.00,,,0.00,VWS V14.01,2013-03-16 10:30:00,
2013-03-16 06:35:00,31.3,6.2,29.65,NNE,20,5.3,10.5,34,0.00,,,0.00,VWS V14.01,2013-03-16 10:35:00,
2013-03-16 06:40:00,31.1,6.0,29.65,NNE,19,4.9,10.5,34,0.00,,,0.00,VWS V14.01,2013-03-16 10:40:00,
2013-03-16 06:45:00,31.1,6.0,29.65,ENE,57,1.8,10.5,34,0.00,,,0.00,VWS V14.01,2013-03-16 10:45:00,
2013-03-16 06:50:00,30.9,5.9,29.65,ENE,74,1.8,10.5,34,0.00,,,0.00,VWS V14.01,2013-03-16 10:50:00,
2013-03-16 06:55:00,30.9,5.9,29.65,NNE,31,1.8,10.5,34,0.00,,,0.00,VWS V14.01,2013-03-16 10:55:00,
2013-03-16 07:00:00,30.7,5.7,29.65,NNE,18,1.8,10.5,34,0.00,,,0.00,VWS V14.01,2013-03-16 11:00:00,
2013-03-16 07:05:00,30.7,5.7,29.65,North,0,1.8,1.8,34,0.00,,,0.00,VWS V14.01,2013-03-16 11:05:00,
2013-03-16 07:10:00,31.1,6.0,29.65,NNW,331,1.8,8.0,34,0.00,,,0.00,VWS V14.01,2013-03-16 11:10:00,
2013-03-16 07:15:00,31.3,5.5,29.65,NW,324,4.0,10.5,33,0.00,,,0.00,VWS V14.01,2013-03-16 11:15:00,
2013-03-16 07:20:00,31.3,5.5,29.65,North,1,7.6,10.5,33,0.00,,,0.00,VWS V14.01,2013-03-16 11:20:00,
2013-03-16 07:25:00,31.3,5.5,29.65,NNE,12,1.8,10.5,33,0.00,,,0.00,VWS V14.01,2013-03-16 11:25:00,
2013-03-16 07:30:00,31.6,5.8,29.65,North,5,4.9,10.5,33,0.00,,,0.00,VWS V14.01,2013-03-16 11:30:00,
2013-03-16 07:35:00,31.8,6.0,29.68,North,0,1.8,10.5,33,0.00,,,0.00,VWS V14.01,2013-03-16 11:35:00,
2013-03-16 07:40:00,32.0,6.2,29.68,NNE,25,5.3,10.5,33,0.00,,,0.00,VWS V14.01,2013-03-16 11:40:00,
2013-03-16 07:45:00,32.2,6.3,29.68,NNE,16,4.4,10.5,33,0.00,,,0.00,VWS V14.01,2013-03-16 11:45:00,
2013-03-16 07:50:00,32.2,6.3,29.68,North,353,1.8,10.5,33,0.00,,,0.00,VWS V14.01,2013-03-16 11:50:00,
2013-03-16 07:55:00,32.4,5.8,29.68,NNW,329,1.8,10.5,32,0.00,,,0.00,VWS V14.01,2013-03-16 11:55:00,
2013-03-16 08:00:00,32.5,6.6,29.68,North,0,1.8,10.5,33,0.00,,,0.00,VWS V14.01,2013-03-16 12:00:00,
2013-03-16 08:05:00,32.5,6.0,29.68,North,7,4.9,8.5,32,0.00,,,0.00,VWS V14.01,2013-03-16 12:05:00,
2013-03-16 08:10:00,32.5,6.0,29.68,North,0,5.8,10.9,32,0.00,,,0.00,VWS V14.01,2013-03-16 12:10:00,
2013-03-16 08:15:00,32.5,5.3,29.68,North,0,1.8,10.9,31,0.00,,,0.00,VWS V14.01,2013-03-16 12:15:00,
2013-03-16 08:20:00,32.5,5.3,29.68,North,357,5.8,10.9,31,0.00,,,0.00,VWS V14.01,2013-03-16 12:20:00,
2013-03-16 08:25:00,32.7,5.4,29.68,North,350,6.7,10.9,31,0.00,,,0.00,VWS V14.01,2013-03-16 12:25:00,
2013-03-16 08:30:00,32.7,5.4,29.68,NNW,342,8.9,10.9,31,0.00,,,0.00,VWS V14.01,2013-03-16 12:30:00,
2013-03-16 08:35:00,32.9,5.6,29.68,North,11,7.1,10.9,31,0.00,,,0.00,VWS V14.01,2013-03-16 12:35:00,
2013-03-16 08:40:00,32.9,5.6,29.68,NNW,332,7.1,11.8,31,0.00,,,0.00,VWS V14.01,2013-03-16 12:40:00,
2013-03-16 08:45:00,33.1,5.8,29.68,North,2,10.5,11.8,31,0.00,,,0.00,VWS V14.01,2013-03-16 12:45:00,
2013-03-16 08:50:00,33.1,5.0,29.68,NNE,14,8.0,11.8,30,0.00,,,0.00,VWS V14.01,2013-03-16 12:50:00,
2013-03-16 08:55:00,33.3,5.2,29.68,North,9,6.2,11.8,30,0.00,,,0.00,VWS V14.01,2013-03-16 12:55:00,
2013-03-16 09:00:00,33.6,5.5,29.68,North,357,9.8,11.8,30,0.00,,,0.00,VWS V14.01,2013-03-16 13:00:00,
2013-03-16 09:05:00,33.6,4.0,29.68,NNE,27,7.1,11.8,28,0.00,,,0.00,VWS V14.01,2013-03-16 13:05:00,
2013-03-16 09:10:00,33.8,3.4,29.68,NW,322,1.8,11.8,27,0.00,,,0.00,VWS V14.01,2013-03-16 13:10:00,
2013-03-16 09:15:00,34.0,3.5,29.68,North,0,8.0,11.8,27,0.00,,,0.00,VWS V14.01,2013-03-16 13:15:00,
2013-03-16 09:20:00,34.2,3.7,29.68,North,353,4.9,11.8,27,0.00,,,0.00,VWS V14.01,2013-03-16 13:20:00,
2013-03-16 09:25:00,34.5,4.0,29.68,ENE,58,5.3,11.8,27,0.00,,,0.00,VWS V14.01,2013-03-16 13:25:00,
2013-03-16 09:30:00,34.9,4.3,29.68,NE,52,7.1,14.1,27,0.00,,,0.00,VWS V14.01,2013-03-16 13:30:00,
2013-03-16 09:35:00,34.9,2.6,29.68,North,353,4.9,14.1,25,0.00,,,0.00,VWS V14.01,2013-03-16 13:35:00,
2013-03-16 09:40:00,35.1,2.8,29.68,North,8,7.6,14.1,25,0.00,,,0.00,VWS V14.01,2013-03-16 13:40:00,
2013-03-16 09:45:00,35.1,2.8,29.68,ENE,71,9.8,14.1,25,0.00,,,0.00,VWS V14.01,2013-03-16 13:45:00,
2013-03-16 09:50:00,35.2,3.0,29.68,North,357,5.3,14.1,25,0.00,,,0.00,VWS V14.01,2013-03-16 13:50:00,
2013-03-16 09:55:00,35.8,2.5,29.68,North,353,1.8,14.1,24,0.00,,,0.00,VWS V14.01,2013-03-16 13:55:00,
2013-03-16 10:00:00,36.3,3.0,29.68,NNE,31,7.1,14.1,24,0.00,,,0.00,VWS V14.01,2013-03-16 14:00:00,
2013-03-16 10:05:00,36.5,3.2,29.68,NW,315,6.7,9.8,24,0.00,,,0.00,VWS V14.01,2013-03-16 14:05:00,
2013-03-16 10:10:00,36.9,3.5,29.68,North,5,7.6,9.8,24,0.00,,,0.00,VWS V14.01,2013-03-16 14:10:00,
2013-03-16 10:15:00,37.0,3.6,29.68,NE,36,4.4,9.8,24,0.00,,,0.00,VWS V14.01,2013-03-16 14:15:00,
2013-03-16 10:20:00,37.6,4.1,29.68,East,87,1.8,9.8,24,0.00,,,0.00,VWS V14.01,2013-03-16 14:20:00,
2013-03-16 10:25:00,38.1,4.5,29.68,North,357,1.8,9.8,24,0.00,,,0.00,VWS V14.01,2013-03-16 14:25:00,
2013-03-16 10:29:00,38.3,4.7,29.68,WNW,296,1.8,9.8,24,0.00,,,0.00,VWS V14.01,2013-03-16 14:29:00,
2013-03-16 10:34:00,38.3,4.7,29.68,North,357,1.8,9.8,24,0.00,,,0.00,VWS V14.01,2013-03-16 14:34:00,
2013-03-16 10:39:00,38.5,4.8,29.68,NW,311,4.0,9.8,24,0.00,,,0.00,VWS V14.01,2013-03-16 14:39:00,
2013-03-16 10:44:00,38.5,4.8,29.68,NNW,343,1.8,9.8,24,0.00,,,0.00,VWS V14.01,2013-03-16 14:44:00,
2013-03-16 10:49:00,38.5,2.0,29.68,NW,326,1.8,9.8,21,0.00,,,0.00,VWS V14.01,2013-03-16 14:49:00,
2013-03-16 10:54:00,38.7,5.0,29.68,NNW,341,1.8,9.8,24,0.00,,,0.00,VWS V14.01,2013-03-16 14:54:00,
2013-03-16 10:59:00,38.8,2.3,29.68,NW,315,4.9,9.8,21,0.00,,,0.00,VWS V14.01,2013-03-16 14:59:00,
2013-03-16 11:00:00,36.3,3.0,29.68,NNE,31,7.1,14.1,24,0.00,,,0.00,VWS V15.00,2013-03-16 15:00:00,
2013-03-16 11:04:00,39.0,2.4,29.68,NNW,334,1.8,7.1,21,0.00,,,0.00,VWS V14.01,2013-03-16 15:04:00,
2013-03-16 11:09:00,39.4,2.7,29.68,NNW,341,1.8,8.0,21,0.00,,,0.00,VWS V14.01,2013-03-16 15:09:00,
2013-03-16 11:15:00,39.4,2.7,29.68,North,1,1.8,8.0,21,0.00,,,0.00,VWS V14.01,2013-03-16 15:15:00,
2013-03-16 11:20:00,39.4,2.7,29.68,NNW,345,1.8,8.0,21,0.00,,,0.00,VWS V14.01,2013-03-16 15:20:00,
2013-03-16 11:24:00,39.6,2.9,29.68,North,353,1.8,8.0,21,0.00,,,0.00,VWS V14.01,2013-03-16 15:24:00,
2013-03-16 11:29:00,39.7,3.0,29.68,NNW,346,6.7,8.0,21,0.00,,,0.00,VWS V14.01,2013-03-16 15:29:00,
2013-03-16 11:34:00,39.9,3.2,29.68,NE,42,5.3,8.0,21,0.00,,,0.00,VWS V14.01,2013-03-16 15:34:00,
2013-03-16 11:39:00,40.1,3.3,29.68,NNW,343,1.8,8.0,21,0.00,,,0.00,VWS V14.01,2013-03-16 15:39:00,
2013-03-16 11:44:00,40.5,3.6,29.68,NW,322,1.8,8.0,21,0.00,,,0.00,VWS V14.01,2013-03-16 15:44:00,
2013-03-16 11:49:00,40.5,3.6,29.68,NNW,338,1.8,8.0,21,0.00,,,0.00,VWS V14.01,2013-03-16 15:49:00,
2013-03-16 11:54:00,39.9,3.2,29.68,NNW,342,4.4,8.0,21,0.00,,,0.00,VWS V14.01,2013-03-16 15:54:00,
2013-03-16 11:59:00,40.1,3.3,29.68,NNE,23,1.8,8.0,21,0.00,,,0.00,VWS V14.01,2013-03-16 15:59:00,
2013-03-16 12:00:00,38.8,2.3,29.68,NW,315,1.8,9.8,21,0.00,,,0.00,VWS V15.00,2013-03-16 16:00:00,
2013-03-16 12:04:00,40.3,3.5,29.65,North,2,1.8,8.0,21,0.00,,,0.00,VWS V14.01,2013-03-16 16:04:00,
2013-03-16 12:09:00,40.5,3.6,29.65,WNW,294,1.8,8.0,21,0.00,,,0.00,VWS V14.01,2013-03-16 16:09:00,
2013-03-16 12:14:00,40.5,3.6,29.65,NNW,334,1.8,8.0,21,0.00,,,0.00,VWS V14.01,2013-03-16 16:14:00,
2013-03-16 12:19:00,40.6,3.8,29.65,NE,41,1.8,8.0,21,0.00,,,0.00,VWS V14.01,2013-03-16 16:19:00,
2013-03-16 12:24:00,41.0,4.1,29.65,NW,318,1.8,8.0,21,0.00,,,0.00,VWS V14.01,2013-03-16 16:24:00,
2013-03-16 12:29:00,40.8,3.9,29.65,NNW,338,1.8,8.0,21,0.00,,,0.00,VWS V14.01,2013-03-16 16:29:00,
2013-03-16 12:34:00,40.5,3.6,29.68,WNW,300,1.8,8.0,21,0.00,,,0.00,VWS V14.01,2013-03-16 16:34:00,
2013-03-16 12:39:00,40.5,3.6,29.68,WNW,294,1.8,8.0,21,0.00,,,0.00,VWS V14.01,2013-03-16 16:39:00,
2013-03-16 12:44:00,40.3,3.5,29.68,NW,312,1.8,8.0,21,0.00,,,0.00,VWS V14.01,2013-03-16 16:44:00,
2013-03-16 12:49:00,40.6,3.8,29.68,NW,305,4.9,8.0,21,0.00,,,0.00,VWS V14.01,2013-03-16 16:49:00,
2013-03-16 12:54:00,41.5,4.5,29.68,WNW,288,1.8,8.0,21,0.00,,,0.00,VWS V14.01,2013-03-16 16:54:00,
2013-03-16 12:59:00,42.3,5.1,29.68,WNW,284,1.8,8.0,21,0.00,,,0.00,VWS V14.01,2013-03-16 16:59:00,
2013-03-16 13:00:00,40.1,3.3,29.68,North,1,1.8,8.0,21,0.00,,,0.00,VWS V15.00,2013-03-16 17:00:00,
2013-03-16 13:04:00,42.8,4.5,29.65,WNW,284,1.8,4.4,20,0.00,,,0.00,VWS V14.01,2013-03-16 17:04:00,
2013-03-16 13:09:00,43.3,5.0,29.65,WNW,294,5.8,5.8,20,0.00,,,0.00,VWS V14.01,2013-03-16 17:09:00,
2013-03-16 13:15:00,43.3,5.0,29.65,West,271,1.8,5.8,20,0.00,,,0.00,VWS V14.01,2013-03-16 17:15:00,
2013-03-16 13:19:00,43.7,5.3,29.65,West,278,4.4,5.8,20,0.00,,,0.00,VWS V14.01,2013-03-16 17:19:00,
2013-03-16 13:24:00,43.7,5.3,29.65,NW,317,1.8,5.8,20,0.00,,,0.00,VWS V14.01,2013-03-16 17:24:00,
2013-03-16 13:30:00,43.9,5.4,29.65,WNW,285,5.8,5.8,20,0.00,,,0.00,VWS V14.01,2013-03-16 17:30:00,
2013-03-16 13:35:00,44.2,5.7,29.65,West,280,4.9,5.8,20,0.00,,,0.00,VWS V14.01,2013-03-16 17:35:00,
2013-03-16 13:40:00,44.8,6.2,29.65,WNW,303,4.4,7.6,20,0.00,,,0.00,VWS V14.01,2013-03-16 17:40:00,
2013-03-16 13:45:00,44.1,5.6,29.65,WNW,297,5.3,7.6,20,0.00,,,0.00,VWS V14.01,2013-03-16 17:45:00,
2013-03-16 13:49:00,43.3,5.0,29.65,WNW,285,4.4,7.6,20,0.00,,,0.00,VWS V14.01,2013-03-16 17:49:00,
2013-03-16 13:54:00,43.3,5.0,29.65,WNW,289,4.4,7.6,20,0.00,,,0.00,VWS V14.01,2013-03-16 17:54:00,
2013-03-16 13:59:00,43.5,5.1,29.65,WNW,284,5.3,7.6,20,0.00,,,0.00,VWS V14.01,2013-03-16 17:59:00,
2013-03-16 14:00:00,42.3,5.1,29.68,WNW,284,1.8,8.0,21,0.00,,,0.00,VWS V15.00,2013-03-16 18:00:00,
2013-03-16 14:04:00,43.0,4.7,29.65,WNW,287,5.3,7.1,20,0.00,,,0.00,VWS V14.01,2013-03-16 18:04:00,
2013-03-16 14:09:00,42.4,5.3,29.65,WNW,293,5.3,7.1,21,0.00,,,0.00,VWS V14.01,2013-03-16 18:09:00,
2013-03-16 14:14:00,42.4,5.3,29.65,WNW,289,5.3,7.1,21,0.00,,,0.00,VWS V14.01,2013-03-16 18:14:00,
2013-03-16 14:19:00,43.0,4.7,29.65,WNW,291,5.8,7.1,20,0.00,,,0.00,VWS V14.01,2013-03-16 18:19:00,
2013-03-16 14:24:00,43.3,5.0,29.65,WNW,290,5.3,7.1,20,0.00,,,0.00,VWS V14.01,2013-03-16 18:24:00,
2013-03-16 14:29:00,44.1,5.6,29.65,WNW,302,5.8,7.1,20,0.00,,,0.00,VWS V14.01,2013-03-16 18:29:00,
2013-03-16 14:34:00,44.2,5.7,29.65,West,265,5.8,7.1,20,0.00,,,0.00,VWS V14.01,2013-03-16 18:34:00,
2013-03-16 14:39:00,44.2,5.7,29.65,West,279,4.4,7.1,20,0.00,,,0.00,VWS V14.01,2013-03-16 18:39:00,
2013-03-16 14:44:00,44.2,5.7,29.65,WSW,237,7.6,7.6,20,0.00,,,0.00,VWS V14.01,2013-03-16 18:44:00,
2013-03-16 14:49:00,45.1,6.5,29.65,West,259,5.8,7.6,20,0.00,,,0.00,VWS V14.01,2013-03-16 18:49:00,
2013-03-16 14:54:00,45.9,7.1,29.65,West,270,5.8,7.6,20,0.00,,,0.00,VWS V14.01,2013-03-16 18:54:00,
2013-03-16 14:59:00,46.0,7.2,29.65,West,265,5.3,7.6,20,0.00,,,0.00,VWS V14.01,2013-03-16 18:59:00,
2013-03-16 15:00:00,43.5,5.1,29.65,West,280,4.9,7.6,20,0.00,,,0.00,VWS V15.00,2013-03-16 19:00:00,
2013-03-16 15:04:00,45.3,6.6,29.65,West,275,7.1,7.6,20,0.00,,,0.00,VWS V14.01,2013-03-16 19:04:00,
2013-03-16 15:09:00,44.1,5.6,29.65,WNW,292,5.8,7.6,20,0.00,,,0.00,VWS V14.01,2013-03-16 19:09:00,
2013-03-16 15:14:00,42.8,4.5,29.65,West,265,5.3,7.6,20,0.00,,,0.00,VWS V14.01,2013-03-16 19:14:00,
2013-03-16 15:19:00,42.3,5.1,29.65,WNW,296,5.3,7.6,21,0.00,,,0.00,VWS V14.01,2013-03-16 19:19:00,
2013-03-16 15:24:00,42.1,5.0,29.65,SW,217,4.9,8.0,21,0.00,,,0.00,VWS V14.01,2013-03-16 19:24:00,
2013-03-16 15:29:00,42.1,5.0,29.65,WSW,257,4.4,8.0,21,0.00,,,0.00,VWS V14.01,2013-03-16 19:29:00,
2013-03-16 15:34:00,42.4,5.3,29.65,WSW,239,5.8,8.0,21,0.00,,,0.00,VWS V14.01,2013-03-16 19:34:00,
2013-03-16 15:39:00,42.3,5.1,29.65,WSW,249,4.4,8.0,21,0.00,,,0.00,VWS V14.01,2013-03-16 19:39:00,
2013-03-16 15:44:00,42.1,5.0,29.65,WSW,250,5.8,8.0,21,0.00,,,0.00,VWS V14.01,2013-03-16 19:44:00,
2013-03-16 15:49:00,42.1,5.0,29.65,SW,226,6.7,8.0,21,0.00,,,0.00,VWS V14.01,2013-03-16 19:49:00,
2013-03-16 15:54:00,42.3,5.1,29.65,SW,223,7.1,8.0,21,0.00,,,0.00,VWS V14.01,2013-03-16 19:54:00,
2013-03-16 15:59:00,41.9,4.8,29.65,SW,218,5.8,8.0,21,0.00,,,0.00,VWS V14.01,2013-03-16 19:59:00,
2013-03-16 16:00:00,46.0,7.2,29.65,West,266,5.3,7.6,20,0.00,,,0.00,VWS V15.00,2013-03-16 20:00:00,
2013-03-16 16:04:00,41.5,4.5,29.65,WSW,243,5.8,6.7,21,0.00,,,0.00,VWS V14.01,2013-03-16 20:04:00,
2013-03-16 16:09:00,41.2,4.2,29.65,West,277,4.4,6.7,21,0.00,,,0.00,VWS V14.01,2013-03-16 20:09:00,
2013-03-16 16:14:00,40.8,3.9,29.65,West,259,5.3,6.7,21,0.00,,,0.00,VWS V14.01,2013-03-16 20:14:00,
2013-03-16 16:19:00,41.0,4.1,29.65,WSW,257,4.9,7.6,21,0.00,,,0.00,VWS V14.01,2013-03-16 20:19:00,
2013-03-16 16:24:00,41.5,4.5,29.65,WSW,251,4.9,7.6,21,0.00,,,0.00,VWS V14.01,2013-03-16 20:24:00,
2013-03-16 16:29:00,42.3,5.1,29.65,WNW,299,4.4,7.6,21,0.00,,,0.00,VWS V14.01,2013-03-16 20:29:00,
2013-03-16 16:34:00,41.7,4.7,29.65,West,266,4.4,7.6,21,0.00,,,0.00,VWS V14.01,2013-03-16 20:34:00,
2013-03-16 16:39:00,41.5,4.5,29.65,WNW,291,4.9,7.6,21,0.00,,,0.00,VWS V14.01,2013-03-16 20:39:00,
2013-03-16 16:44:00,41.5,4.5,29.65,WNW,295,4.9,7.6,21,0.00,,,0.00,VWS V14.01,2013-03-16 20:44:00,
2013-03-16 16:49:00,43.5,5.1,29.62,WSW,248,5.3,7.6,20,0.00,,,0.00,VWS V14.01,2013-03-16 20:49:00,
2013-03-16 16:54:00,45.5,6.8,29.62,SW,216,7.1,7.6,20,0.00,,,0.00,VWS V14.01,2013-03-16 20:54:00,
2013-03-16 16:59:00,46.2,7.4,29.62,WSW,251,4.9,7.6,20,0.00,,,0.00,VWS V14.01,2013-03-16 20:59:00,
2013-03-16 17:00:00,41.7,4.7,29.65,SW,216,4.9,8.0,21,0.00,,,0.00,VWS V15.00,2013-03-16 21:00:00,
2013-03-16 17:04:00,45.3,6.6,29.62,WNW,284,5.3,7.1,20,0.00,,,0.00,VWS V14.01,2013-03-16 21:04:00,
2013-03-16 17:09:00,43.3,5.0,29.62,WSW,240,5.8,7.6,20,0.00,,,0.00,VWS V14.01,2013-03-16 21:09:00,
2013-03-16 17:14:00,42.1,5.0,29.62,WSW,242,5.8,7.6,21,0.00,,,0.00,VWS V14.01,2013-03-16 21:14:00,
2013-03-16 17:19:00,41.5,4.5,29.65,West,264,4.4,7.6,21,0.00,,,0.00,VWS V14.01,2013-03-16 21:19:00,
2013-03-16 17:24:00,41.2,4.2,29.65,WSW,247,6.7,7.6,21,0.00,,,0.00,VWS V14.01,2013-03-16 21:24:00,
2013-03-16 17:29:00,41.0,4.1,29.65,WNW,285,4.0,8.0,21,0.00,,,0.00,VWS V14.01,2013-03-16 21:29:00,
2013-03-16 17:34:00,40.6,3.8,29.62,SW,236,4.4,8.0,21,0.00,,,0.00,VWS V14.01,2013-03-16 21:34:00,
2013-03-16 17:39:00,40.6,3.8,29.62,WSW,258,4.9,8.0,21,0.00,,,0.00,VWS V14.01,2013-03-16 21:39:00,
2013-03-16 17:44:00,40.8,3.9,29.62,SSW,210,5.8,8.0,21,0.00,,,0.00,VWS V14.01,2013-03-16 21:44:00,
2013-03-16 17:49:00,41.7,4.7,29.62,SW,223,4.0,8.0,21,0.00,,,0.00,VWS V14.01,2013-03-16 21:49:00,
2013-03-16 17:54:00,46.4,6.4,29.62,SSE,166,5.3,8.0,19,0.00,,,0.00,VWS V14.01,2013-03-16 21:54:00,
2013-03-16 17:59:00,45.1,6.5,29.62,SSE,167,5.3,8.0,20,0.00,,,0.00,VWS V14.01,2013-03-16 21:59:00,
2013-03-16 18:00:00,46.2,7.4,29.62,West,265,5.8,7.6,20,0.00,,,0.00,VWS V15.00,2013-03-16 22:00:00,
2013-03-16 18:04:00,44.4,5.9,29.62,SW,223,5.8,7.1,20,0.00,,,0.00,VWS V14.01,2013-03-16 22:04:00,
2013-03-16 18:09:00,42.8,4.5,29.62,SW,214,6.7,7.1,20,0.00,,,0.00,VWS V14.01,2013-03-16 22:09:00,
2013-03-16 18:14:00,41.2,4.2,29.62,SW,228,4.4,7.1,21,0.00,,,0.00,VWS V14.01,2013-03-16 22:14:00,
2013-03-16 18:19:00,39.9,3.2,29.62,SSW,206,4.4,7.1,21,0.00,,,0.00,VWS V14.01,2013-03-16 22:19:00,
2013-03-16 18:24:00,39.0,2.4,29.62,WSW,247,4.4,7.1,21,0.00,,,0.00,VWS V14.01,2013-03-16 22:24:00,
2013-03-16 18:29:00,38.3,1.8,29.62,SW,224,1.8,7.1,21,0.00,,,0.00,VWS V14.01,2013-03-16 22:29:00,
2013-03-16 18:34:00,37.9,1.5,29.62,SW,223,5.8,7.1,21,0.00,,,0.00,VWS V14.01,2013-03-16 22:34:00,
2013-03-16 18:39:00,37.4,1.0,29.62,SW,233,5.8,7.6,21,0.00,,,0.00,VWS V14.01,2013-03-16 22:39:00,
2013-03-16 18:44:00,37.0,1.7,29.62,SW,215,4.9,7.6,22,0.00,,,0.00,VWS V14.01,2013-03-16 22:44:00,
2013-03-16 18:49:00,36.9,1.6,29.62,SSW,206,4.9,7.6,22,0.00,,,0.00,VWS V14.01,2013-03-16 22:49:00,
2013-03-16 18:54:00,36.5,1.3,29.62,SW,216,1.8,7.6,22,0.00,,,0.00,VWS V14.01,2013-03-16 22:54:00,
2013-03-16 18:59:00,36.3,1.1,29.62,SW,226,4.0,7.6,22,0.00,,,0.00,VWS V14.01,2013-03-16 22:59:00,
2013-03-16 19:00:00,45.0,6.3,29.62,SSE,168,5.8,8.0,20,0.00,,,0.00,VWS V15.00,2013-03-16 23:00:00,
2013-03-16 19:04:00,36.0,0.8,29.62,West,264,4.9,7.1,22,0.00,,,0.00,VWS V14.01,2013-03-16 23:04:00,
2013-03-16 19:09:00,35.6,0.5,29.62,WSW,237,6.7,7.1,22,0.00,,,0.00,VWS V14.01,2013-03-16 23:09:00,
2013-03-16 19:14:00,35.6,2.4,29.62,WNW,289,4.4,7.1,24,0.00,,,0.00,VWS V14.01,2013-03-16 23:14:00,
2013-03-16 19:19:00,35.6,2.4,29.62,West,261,4.9,7.6,24,0.00,,,0.00,VWS V14.01,2013-03-16 23:19:00,
2013-03-16 19:24:00,35.6,2.4,29.62,West,267,5.8,7.6,24,0.00,,,0.00,VWS V14.01,2013-03-16 23:24:00,
2013-03-16 19:29:00,35.6,2.4,29.62,WNW,285,4.9,7.6,24,0.00,,,0.00,VWS V14.01,2013-03-16 23:29:00,
2013-03-16 19:34:00,35.8,2.5,29.65,West,268,6.7,7.6,24,0.00,,,0.00,VWS V14.01,2013-03-16 23:34:00,
2013-03-16 19:39:00,35.8,2.5,29.65,WSW,251,4.4,7.6,24,0.00,,,0.00,VWS V14.01,2013-03-16 23:39:00,
2013-03-16 19:44:00,35.8,2.5,29.65,WSW,258,4.9,7.6,24,0.00,,,0.00,VWS V14.01,2013-03-16 23:44:00,
2013-03-16 19:49:00,35.8,2.5,29.65,West,279,4.9,7.6,24,0.00,,,0.00,VWS V14.01,2013-03-16 23:49:00,
2013-03-16 19:54:00,35.8,2.5,29.65,WNW,292,4.4,7.6,24,0.00,,,0.00,VWS V14.01,2013-03-16 23:54:00,
2013-03-16 19:59:00,35.8,2.5,29.65,West,271,5.3,7.6,24,0.00,,,0.00,VWS V14.01,2013-03-16 23:59:00,
2013-03-16 20:00:00,36.1,1.0,29.62,SW,227,4.4,7.6,22,0.00,,,0.00,VWS V15.00,2013-03-17 00:00:00,
2013-03-16 20:04:00,35.8,2.5,29.65,West,265,5.8,7.1,24,0.00,,,0.00,VWS V14.01,2013-03-17 00:04:00,
2013-03-16 20:09:00,35.8,2.5,29.65,West,275,6.7,7.1,24,0.00,,,0.00,VWS V14.01,2013-03-17 00:09:00,
2013-03-16 20:14:00,35.8,2.5,29.65,West,281,7.6,7.6,24,0.00,,,0.00,VWS V14.01,2013-03-17 00:14:00,
2013-03-16 20:19:00,35.8,2.5,29.65,WNW,299,5.3,7.6,24,0.00,,,0.00,VWS V14.01,2013-03-17 00:19:00,
2013-03-16 20:24:00,35.8,2.5,29.65,WNW,286,5.3,7.6,24,0.00,,,0.00,VWS V14.01,2013-03-17 00:24:00,
2013-03-16 20:29:00,35.8,2.5,29.65,WSW,237,5.8,7.6,24,0.00,,,0.00,VWS V14.01,2013-03-17 00:29:00,
2013-03-16 20:34:00,35.8,2.5,29.68,WNW,292,7.1,7.6,24,0.00,,,0.00,VWS V14.01,2013-03-17 00:34:00,
2013-03-16 20:39:00,35.8,2.5,29.68,WNW,285,5.8,7.6,24,0.00,,,0.00,VWS V14.01,2013-03-17 00:39:00,
2013-03-16 20:44:00,35.8,2.5,29.68,SW,229,7.6,7.6,24,0.00,,,0.00,VWS V14.01,2013-03-17 00:44:00,
2013-03-16 20:49:00,35.8,2.5,29.68,WNW,286,7.1,7.6,24,0.00,,,0.00,VWS V14.01,2013-03-17 00:49:00,
2013-03-16 20:54:00,35.8,2.5,29.68,WNW,295,5.8,8.0,24,0.00,,,0.00,VWS V14.01,2013-03-17 00:54:00,
2013-03-16 20:59:00,35.8,5.1,29.68,WNW,299,8.0,8.0,27,0.00,,,0.00,VWS V14.01,2013-03-17 00:59:00,
2013-03-16 21:00:00,35.8,2.5,29.65,WSW,252,7.1,7.6,24,0.00,,,0.00,VWS V15.00,2013-03-17 01:00:00,
2013-03-16 21:04:00,35.8,7.4,29.68,NW,306,7.6,9.4,30,0.00,,,0.00,VWS V14.01,2013-03-17 01:04:00,
2013-03-16 21:09:00,35.8,8.1,29.68,NW,305,8.0,9.4,31,0.00,,,0.00,VWS V14.01,2013-03-17 01:09:00,
2013-03-16 21:14:00,35.6,8.7,29.68,West,280,7.6,10.5,32,0.00,,,0.00,VWS V14.01,2013-03-17 01:14:00,
2013-03-16 21:19:00,35.6,9.4,29.68,WNW,289,7.6,10.5,33,0.00,,,0.00,VWS V14.01,2013-03-17 01:19:00,
2013-03-16 21:24:00,35.4,9.9,29.68,WNW,285,8.0,10.5,34,0.00,,,0.00,VWS V14.01,2013-03-17 01:24:00,
2013-03-16 21:29:00,35.4,9.9,29.68,WNW,301,7.1,10.5,34,0.00,,,0.00,VWS V14.01,2013-03-17 01:29:00,
2013-03-16 21:34:00,35.4,10.5,29.68,West,278,8.0,10.5,35,0.00,,,0.00,VWS V14.01,2013-03-17 01:34:00,
2013-03-16 21:39:00,35.4,11.1,29.68,WNW,287,6.7,10.5,36,0.00,,,0.00,VWS V14.01,2013-03-17 01:39:00,
2013-03-16 21:44:00,35.4,11.8,29.68,West,278,8.0,10.5,37,0.00,,,0.00,VWS V14.01,2013-03-17 01:44:00,
2013-03-16 21:49:00,35.4,12.4,29.68,WNW,284,7.1,10.5,38,0.00,,,0.00,VWS V14.01,2013-03-17 01:49:00,
2013-03-16 21:54:00,35.4,12.9,29.68,WNW,291,7.6,10.5,39,0.00,,,0.00,VWS V14.01,2013-03-17 01:54:00,
2013-03-16 21:59:00,35.4,13.5,29.68,WNW,287,8.0,10.5,40,0.00,,,0.00,VWS V14.01,2013-03-17 01:59:00,
2013-03-16 22:00:00,35.8,5.1,29.68,WNW,284,7.6,8.0,27,0.00,,,0.00,VWS V15.00,2013-03-17 02:00:00,
2013-03-16 22:04:00,35.4,13.5,29.68,WNW,290,8.0,9.4,40,0.00,,,0.00,VWS V14.01,2013-03-17 02:04:00,
2013-03-16 22:09:00,35.4,13.5,29.68,WNW,294,8.0,9.4,40,0.00,,,0.00,VWS V14.01,2013-03-17 02:09:00,
2013-03-16 22:14:00,35.4,13.5,29.68,West,279,5.8,9.4,40,0.00,,,0.00,VWS V14.01,2013-03-17 02:14:00,
2013-03-16 22:19:00,35.4,13.5,29.68,WNW,289,7.1,9.4,40,0.00,,,0.00,VWS V14.01,2013-03-17 02:19:00,
2013-03-16 22:24:00,35.4,13.5,29.68,NW,304,5.3,9.4,40,0.00,,,0.00,VWS V14.01,2013-03-17 02:24:00,
2013-03-16 22:29:00,35.4,13.5,29.68,WNW,302,5.3,9.4,40,0.00,,,0.00,VWS V14.01,2013-03-17 02:29:00,
2013-03-16 22:34:00,35.6,13.7,29.71,WNW,290,7.1,9.4,40,0.00,,,0.00,VWS V14.01,2013-03-17 02:34:00,
2013-03-16 22:39:00,35.6,13.7,29.71,WNW,284,7.1,9.4,40,0.00,,,0.00,VWS V14.01,2013-03-17 02:39:00,
2013-03-16 22:44:00,35.4,13.5,29.71,WNW,287,7.6,9.4,40,0.00,,,0.00,VWS V14.01,2013-03-17 02:44:00,
2013-03-16 22:49:00,35.6,13.7,29.71,WNW,294,5.8,9.4,40,0.00,,,0.00,VWS V14.01,2013-03-17 02:49:00,
2013-03-16 22:54:00,35.6,13.7,29.71,WSW,250,9.4,9.4,40,0.00,,,0.00,VWS V14.01,2013-03-17 02:54:00,
2013-03-16 22:59:00,35.4,13.5,29.71,West,281,7.1,9.4,40,0.00,,,0.00,VWS V14.01,2013-03-17 02:59:00,
2013-03-16 23:00:00,35.4,13.5,29.68,WNW,292,8.0,10.5,40,0.00,,,0.00,VWS V15.00,2013-03-17 03:00:00,
2013-03-16 23:04:00,35.4,12.4,29.71,West,273,7.1,9.8,38,0.00,,,0.00,VWS V14.01,2013-03-17 03:04:00,
2013-03-16 23:09:00,35.4,11.8,29.71,WNW,292,7.6,9.8,37,0.00,,,0.00,VWS V14.01,2013-03-17 03:09:00,
2013-03-16 23:14:00,35.4,11.1,29.71,NW,305,7.1,9.8,36,0.00,,,0.00,VWS V14.01,2013-03-17 03:14:00,
2013-03-16 23:19:00,35.4,11.8,29.71,WNW,295,7.6,9.8,37,0.00,,,0.00,VWS V14.01,2013-03-17 03:19:00,
2013-03-16 23:24:00,35.4,12.9,29.71,WNW,289,9.4,10.0,39,0.00,,,0.00,VWS V14.01,2013-03-17 03:24:00,
2013-03-16 23:29:00,35.4,12.4,29.71,WNW,297,7.1,10.0,38,0.00,,,0.00,VWS V14.01,2013-03-17 03:29:00,
2013-03-16 23:34:00,35.4,12.4,29.71,WNW,284,5.8,10.0,38,0.00,,,0.00,VWS V14.01,2013-03-17 03:34:00,
2013-03-16 23:39:00,35.4,12.9,29.71,WSW,239,8.0,10.0,39,0.00,,,0.00,VWS V14.01,2013-03-17 03:39:00,
2013-03-16 23:44:00,35.2,13.4,29.71,West,265,7.1,10.0,40,0.00,,,0.00,VWS V14.01,2013-03-17 03:44:00,
2013-03-16 23:49:00,35.1,13.8,29.71,WSW,257,5.3,10.0,41,0.00,,,0.00,VWS V14.01,2013-03-17 03:49:00,
2013-03-16 23:54:00,34.9,13.6,29.71,WNW,285,4.9,10.0,41,0.00,,,0.00,VWS V14.01,2013-03-17 03:54:00,
2013-03-16 23:59:00,34.9,14.1,29.71,NW,305,5.8,10.0,42,0.00,,,0.00,VWS V14.01,2013-03-17 03:59:00,